Miscellaneous Local Product
Issued by NWS Hastings, NE

Home | Current Version | Previous Version | Graphics & Text | Print | Product List | Glossary On
Versions: 1 2 3 4 5 6 7 8 9 10 11 12 13 14 15 16 17 18 19 20 21 22 23 24 25 26 27 28 29 30 31 32 33 34 35 36 37 38 39 40 41 42 43 44 45 46 47 48 49 50
000
AXUS43 KGID 280302
MISGRI

GID CWA HOURLY WEATHER ROUNDUP
NATIONAL WEATHER SERVICE HASTINGS NE
1000 PM CDT SUN JUL 27 2014

NOTE: "FAIR" INDICATES FEW OR NO CLOUDS BELOW 12,000 FEET WITH NO
SIGNIFICANT WEATHER AND/OR OBSTRUCTIONS TO VISIBILITY.

...SOUTH CENTRAL NEBRASKA...

CITY           SKY/WX    TMP DP  RH WIND       PRES   REMARKS
GRAND ISLAND   CLEAR     68  60  75 NE6       30.21R
HASTINGS       CLEAR     70  58  65 CALM      30.21R
KEARNEY        CLEAR     66  55  68 N7        30.23R
ORD            CLEAR     64  56  75 N5        30.22R
YORK           CLEAR     68  63  83 NE5       30.20R
AURORA         CLEAR     67  62  85 N5        30.20R
LEXINGTON      CLEAR     66  57  71 CALM      30.24R
HOLDREGE       CLEAR     68  58  71 CALM      30.23R
HEBRON         CLEAR     67  60  76 CALM      30.18R

...NEBRASKA PANHANDLE...

CITY           SKY/WX    TMP DP  RH WIND       PRES   REMARKS
CHADRON        PTCLDY    69  51  52 E9        30.27R
ALLIANCE       PTCLDY    69  49  48 E8        30.29R
SCOTTSBLUFF    CLEAR     72  56  57 E8        30.27R
SIDNEY         PTCLDY    71  45  39 SE6       30.32R

...WESTERN AND NORTH CENTRAL NEBRASKA...

CITY           SKY/WX    TMP DP  RH WIND       PRES   REMARKS
VALENTINE      CLEAR     70  51  51 NE8       30.27R
AINSWORTH      CLEAR     64  53  69 NE7       30.27R
ONEILL         CLEAR     66  55  67 NE10      30.25R
BROKEN BOW     CLEAR     62  56  80 N6        30.25R
IMPERIAL       MOCLDY    76  50  40 E7        30.27R
NORTH PLATTE   CLEAR     68  49  50 NE6       30.25R
MCCOOK         PTCLDY    73  54  51 E3        30.24R

...EASTERN NEBRASKA...

CITY           SKY/WX    TMP DP  RH WIND       PRES   REMARKS
NORFOLK        CLEAR     68  57  68 N14       30.20R
SO SIOUX CITY  CLEAR     66  56  70 N9        30.18R
ALBION         CLEAR     66  58  73 N6        30.22R
OMAHA EPPLEY   PTCLDY    67  57  70 N7        30.15R
OFFUTT AFB     CLEAR     68  59  71 NW7       30.14R
MILLARD        CLEAR     72  58  62 NW5       30.15R
LINCOLN        CLEAR     71  56  58 N5        30.18R
NEBRASKA CITY  CLEAR     67  56  67 N7        30.15R
BEATRICE       CLEAR     67  60  77 NE6       30.17R
FALLS CITY     NOT AVBL

...NORTHERN KANSAS...

CITY           SKY/WX    TMP DP  RH WIND       PRES   REMARKS
GOODLAND       PTCLDY    69  52  54 SE8       30.30R
HILL CITY      CLEAR     73  53  49 NE6       30.21R
NORTON         CLEAR     68  48  49 N5        30.22R
PHILLIPSBURG   CLEAR     75  52  43 N5        30.19R
SMITH CENTER   CLEAR     72  54  53 NE6       30.20R
HAYS           CLEAR     73  52  46 NE10      30.21R
RUSSELL        CLEAR     74  50  42 NE7       30.18R
CONCORDIA      CLEAR     74  55  51 N3        30.17R
SALINA         CLEAR     80  53  39 NE8       30.16R
TOPEKA         CLEAR     74  58  57 N8        30.12R



USA.gov is the U.S. government's official web portal to all federal, state and local government web resources and services.